Weather History for KGUC - March, 2013

Change the Weather History Date:

Monday, March 18, 2013

  Actual Average Record
Temperature  
Mean Temperature 34 °F -  
Max Temperature 42 °F 45 °F 64 °F (2007)
Min Temperature 26 °F 18 °F 3 °F (2008)
Degree Days  
Heating Degree Days 31    
Moisture  
Dew Point 10 °F    
Average Humidity 38    
Maximum Humidity 51    
Minimum Humidity 27    
Precipitation  
Precipitation 0.00 in - - ()
Sea Level Pressure  
Sea Level Pressure 30.00 in    
Wind  
Wind Speed 10 mph (West)    
Max Wind Speed 25 mph    
Max Gust Speed 32 mph    
Visibility 10 miles    
Events      
Averages and records for this station are not official NWS values.
T = Trace of Precipitation, MM = Missing Value Source: NWS Daily Summary

Daily Weather History Graph

Daily Weather History Graph

Search for Another Location

Airport or City:

Trip Planner

Search our weather history database for the weather conditions in past years. The results will help you decide how hot, cold, wet, or windy it might be!

Date:

Astronomy

Mar. 18, 2013 Rise Set
Actual Time 7:13 AM MDT 7:18 PM MDT
Civil Twilight 6:47 AM MDT 7:44 PM MDT
Nautical Twilight 6:16 AM MDT 8:15 PM MDT
Astronomical Twilight 5:45 AM MDT 8:46 PM MDT
Moon 11:19 AM MDT (3/18) 1:15 AM MDT (3/18)
Length of Visible Light 12h 57m
Length of Day
12h 04m
Waxing Crescent, 41% of the Moon is Illuminated
Mar 18
Waxing Crescent
Mar 19
First Quarter
Mar 27
Full
Apr 2
Last Quarter
Apr 10
New

Hourly Weather History & Observations

Time (MDT) Temp. Windchill Dew Point Humidity Pressure Visibility Wind Dir Wind Speed Gust Speed Precip Events Conditions
12:35 AM 30.2 °F 23.4 °F 8.6 °F 40% 29.93 in 10.0 mi WSW 6.9 mph - N/A   Clear
12:55 AM 30.2 °F 25.4 °F 10.4 °F 44% 29.93 in 10.0 mi SW 4.6 mph - N/A   Clear
1:15 AM 30.2 °F 26.7 °F 8.6 °F 40% 29.94 in 10.0 mi WSW 3.5 mph - N/A   Clear
1:35 AM 30.2 °F 26.7 °F 8.6 °F 40% 29.94 in 10.0 mi SW 3.5 mph - N/A   Clear
2:15 AM 28.4 °F 19.1 °F 8.6 °F 43% 29.94 in 10.0 mi West 10.4 mph - N/A   Clear
2:35 AM 28.4 °F 21.2 °F 10.4 °F 47% 29.95 in 10.0 mi West 6.9 mph - N/A   Clear
2:55 AM 28.4 °F 23.3 °F 6.8 °F 40% 29.95 in 10.0 mi West 4.6 mph - N/A   Clear
3:15 AM 26.6 °F 20.0 °F 8.6 °F 47% 29.95 in 10.0 mi WSW 5.8 mph - N/A   Clear
3:35 AM 26.6 °F 21.2 °F 8.6 °F 47% 29.95 in 10.0 mi WSW 4.6 mph - N/A   Scattered Clouds
3:55 AM 28.4 °F 24.6 °F 8.6 °F 43% 29.94 in 10.0 mi SW 3.5 mph - N/A   Mostly Cloudy
4:15 AM 28.4 °F 24.6 °F 8.6 °F 43% 29.94 in 10.0 mi West 3.5 mph - N/A   Partly Cloudy
4:35 AM 26.6 °F 18.2 °F 6.8 °F 43% 29.94 in 10.0 mi WSW 8.1 mph - N/A   Clear
4:55 AM 26.6 °F 19.1 °F 8.6 °F 47% 29.94 in 10.0 mi WSW 6.9 mph - N/A   Mostly Cloudy
5:15 AM 26.6 °F 19.1 °F 8.6 °F 47% 29.94 in 10.0 mi West 6.9 mph - N/A   Partly Cloudy
5:35 AM 26.6 °F 20.0 °F 10.4 °F 51% 29.94 in 10.0 mi WSW 5.8 mph - N/A   Scattered Clouds
5:55 AM 26.6 °F 20.0 °F 8.6 °F 47% 29.94 in 10.0 mi WSW 5.8 mph - N/A   Partly Cloudy
6:15 AM 26.6 °F 21.2 °F 10.4 °F 51% 29.95 in 10.0 mi WSW 4.6 mph - N/A   Mostly Cloudy
6:35 AM 28.4 °F 24.6 °F 12.2 °F 51% 29.96 in 10.0 mi WSW 3.5 mph - N/A   Scattered Clouds
6:55 AM 28.4 °F 22.2 °F 10.4 °F 47% 29.96 in 10.0 mi SSW 5.8 mph - N/A   Partly Cloudy
7:15 AM 28.4 °F 24.6 °F 10.4 °F 47% 29.97 in 10.0 mi WSW 3.5 mph - N/A   Partly Cloudy
7:35 AM 28.4 °F 24.6 °F 10.4 °F 47% 29.98 in 10.0 mi West 3.5 mph - N/A   Mostly Cloudy
7:55 AM 28.4 °F 19.7 °F 10.4 °F 47% 29.99 in 10.0 mi West 9.2 mph - N/A   Overcast
8:15 AM 28.4 °F 20.4 °F 8.6 °F 43% 29.99 in 10.0 mi West 8.1 mph - N/A   Overcast
8:35 AM 28.4 °F 19.1 °F 10.4 °F 47% 30.01 in 10.0 mi West 10.4 mph 16.1 mph N/A   Overcast
9:15 AM 30.2 °F 20.8 °F 10.4 °F 44% 30.02 in 10.0 mi West 11.5 mph 17.3 mph N/A   Mostly Cloudy
9:35 AM 30.2 °F 18.5 °F 10.4 °F 44% 30.03 in 10.0 mi WNW 17.3 mph 21.9 mph N/A   Overcast
9:55 AM 32.0 °F 23.0 °F 12.2 °F 44% 30.04 in 10.0 mi NW 11.5 mph 17.3 mph N/A   Overcast
10:15 AM 33.8 °F 24.3 °F 15.8 °F 48% 30.04 in 10.0 mi NW 13.8 mph 17.3 mph N/A   Overcast
10:35 AM 35.6 °F 25.2 °F 10.4 °F 35% 30.03 in 10.0 mi WNW 18.4 mph 26.5 mph N/A   Overcast
10:55 AM 35.6 °F 27.1 °F 12.2 °F 38% 30.04 in 10.0 mi West 12.7 mph 24.2 mph N/A   Overcast
11:15 AM 35.6 °F 25.5 °F 10.4 °F 35% 30.03 in 10.0 mi WSW 17.3 mph 27.6 mph N/A   Mostly Cloudy
11:35 AM 37.4 °F 26.6 °F 8.6 °F 30% 30.03 in 10.0 mi West 21.9 mph 29.9 mph N/A   Mostly Cloudy
11:55 AM 35.6 °F 25.2 °F 10.4 °F 35% 30.04 in 10.0 mi WSW 18.4 mph 27.6 mph N/A   Overcast
12:15 PM 37.4 °F 26.4 °F 12.2 °F 36% 30.04 in 10.0 mi West 23.0 mph 32.2 mph N/A   Overcast
12:35 PM 37.4 °F 27.8 °F 10.4 °F 33% 30.04 in 10.0 mi West 17.3 mph 27.6 mph N/A   Mostly Cloudy
12:55 PM 37.4 °F 25.9 °F 8.6 °F 30% 30.03 in 10.0 mi WSW 25.3 mph 32.2 mph N/A   Mostly Cloudy
1:15 PM 39.2 °F 29.3 °F 12.2 °F 33% 30.03 in 10.0 mi West 20.7 mph 29.9 mph N/A   Mostly Cloudy
1:35 PM 39.2 °F 30.5 °F 10.4 °F 31% 30.03 in 10.0 mi West 16.1 mph 25.3 mph N/A   Mostly Cloudy
1:55 PM 39.2 °F 30.5 °F 12.2 °F 33% 30.03 in 10.0 mi WSW 16.1 mph 28.8 mph N/A   Mostly Cloudy
2:15 PM 39.2 °F 29.8 °F 15.8 °F 39% 30.02 in 10.0 mi West 18.4 mph 27.6 mph N/A   Mostly Cloudy
2:35 PM 42.8 °F 34.0 °F 12.2 °F 29% 30.01 in 10.0 mi West 20.7 mph 29.9 mph N/A   Mostly Cloudy
2:55 PM 41.0 °F 31.9 °F 10.4 °F 29% 30.00 in 10.0 mi West 19.6 mph 31.1 mph N/A   Mostly Cloudy
3:15 PM 41.0 °F 31.4 °F 10.4 °F 29% 29.99 in 10.0 mi West 21.9 mph 28.8 mph N/A   Overcast
3:35 PM 41.0 °F 31.1 °F 10.4 °F 29% 29.99 in 10.0 mi West 23.0 mph 32.2 mph N/A   Mostly Cloudy
3:55 PM 42.8 °F 33.8 °F 10.4 °F 27% 29.99 in 10.0 mi WSW 21.9 mph 29.9 mph N/A   Mostly Cloudy
4:15 PM 41.0 °F 31.1 °F 10.4 °F 29% 29.99 in 10.0 mi WSW 23.0 mph 32.2 mph N/A   Mostly Cloudy
4:35 PM 41.0 °F 33.1 °F 10.4 °F 29% 29.99 in 10.0 mi WSW 15.0 mph 28.8 mph N/A   Scattered Clouds
4:55 PM 42.8 °F 34.8 °F 12.2 °F 29% 29.99 in 10.0 mi West 17.3 mph 26.5 mph N/A   Partly Cloudy
5:15 PM 42.8 °F 34.8 °F 10.4 °F 27% 29.99 in 10.0 mi West 17.3 mph 27.6 mph N/A   Clear
5:35 PM 42.8 °F 34.0 °F 10.4 °F 27% 30.00 in 10.0 mi West 20.7 mph 31.1 mph N/A   Clear
5:55 PM 42.8 °F 34.8 °F 10.4 °F 27% 30.00 in 10.0 mi West 17.3 mph 25.3 mph N/A   Clear
6:15 PM 41.0 °F 31.6 °F 10.4 °F 29% 30.00 in 10.0 mi West 20.7 mph 28.8 mph N/A   Clear
6:35 PM 39.2 °F 31.6 °F 10.4 °F 31% 30.00 in 10.0 mi West 12.7 mph 20.7 mph N/A   Clear
6:55 PM 39.2 °F 29.0 °F 8.6 °F 28% 30.00 in 10.0 mi West 21.9 mph 27.6 mph N/A   Clear
7:15 PM 37.4 °F 27.8 °F 6.8 °F 28% 30.01 in 10.0 mi West 17.3 mph 26.5 mph N/A   Clear
7:35 PM 37.4 °F 29.3 °F 6.8 °F 28% 30.01 in 10.0 mi West 12.7 mph 18.4 mph N/A   Clear
7:55 PM 37.4 °F 28.9 °F 8.6 °F 30% 30.02 in 10.0 mi West 13.8 mph 19.6 mph N/A   Clear
8:15 PM 37.4 °F 30.8 °F 6.8 °F 28% 30.02 in 10.0 mi West 9.2 mph - N/A   Clear
8:35 PM 35.6 °F 29.9 °F 8.6 °F 33% 30.03 in 10.0 mi West 6.9 mph - N/A   Clear
8:55 PM 35.6 °F 31.7 °F 8.6 °F 33% 30.03 in 10.0 mi SW 4.6 mph - N/A   Clear
9:15 PM 33.8 °F 29.6 °F 8.6 °F 35% 30.04 in 10.0 mi WNW 4.6 mph - N/A   Clear
9:55 PM 33.8 °F 28.6 °F 10.4 °F 38% 30.05 in 10.0 mi WSW 5.8 mph - N/A   Clear
10:15 PM 33.8 °F 30.8 °F 10.4 °F 38% 30.05 in 10.0 mi WSW 3.5 mph - N/A   Clear
10:35 PM 33.8 °F - 10.4 °F 38% 30.05 in 10.0 mi Calm Calm - N/A   Clear
10:55 PM 33.8 °F - 10.4 °F 38% 30.06 in 10.0 mi Calm Calm - N/A   Clear
11:15 PM 32.0 °F 28.7 °F 10.4 °F 41% 30.06 in 10.0 mi WSW 3.5 mph - N/A   Clear
11:35 PM 32.0 °F 28.7 °F 12.2 °F 44% 30.07 in 10.0 mi West 3.5 mph - N/A   Clear
11:55 PM 30.2 °F 24.3 °F 10.4 °F 44% 30.07 in 10.0 mi WSW 5.8 mph - N/A   Clear